Wind_Speed
19 17 15 14 13 12 11 10 10 10 10 10 10 10 10 10 11 11 12 13 13 14 14 16 17 18 18 18 19 20 20 21 22 23 24 25 26 27 27 27 28 29 30 31 31 32 33 34 35 37 38 40 40 40 38 35 33 30 27 25 22 20 18 17 17 17 16 17 17 18 21 24 26 28 29 28 28 28 29 30 29 26 23 22 24 24 24 23
19 16 14 13 11 10 9 8 7 8 8 8 8 8 8 8 9 9 9 10 10 11 12 14 17 19 20 21 21 22 22 22 23 24 25 26 27 28 28 29 30 31 31 31 32 33 34 35 37 38 38 38 36 34 31 29 27 24 21 20 18 17 15 14 14 13 13 15 17 20 21 23 25 28 29 28 28 29 30 29 28 26 22 22 23 22 21 19
18 16 15 13 11 10 8 7 7 7 8 8 8 8 8 9 9 10 10 10 11 12 12 14 16 17 19 20 21 22 22 22 22 23 24 25 26 27 28 29 30 30 31 31 33 34 35 36 36 36 34 33 30 28 26 24 21 18 17 16 15 14 13 12 11 12 14 16 18 21 22 22 23 26 29 29 28 30 31 29 27 24 22 22 22 22 20 19
18 17 15 14 12 11 10 10 9 9 10 10 11 11 11 11 12 12 13 13 13 14 15 16 18 19 20 21 22 22 22 22 22 23 24 25 26 27 28 29 30 31 32 33 34 35 35 34 32 31 29 27 25 23 21 19 17 15 16 14 12 11 10 10 11 14 16 18 19 21 23 24 24 25 27 29 29 29 30 28 25 22 21 22 23 24 22 21
18 17 15 14 13 12 11 11 11 12 12 13 13 14 14 15 16 16 17 17 17 18 19 21 22 23 24 24 25 25 25 25 25 25 26 27 29 30 31 32 32 32 33 33 33 32 31 29 27 26 24 23 20 19 17 16 14 14 14 13 12 9 7 8 10 12 15 18 20 22 23 23 24 24 25 27 28 29 28 27 24 20 19 21 22 23 23 23
17 16 15 14 13 12 12 11 12 12 13 14 14 14 15 16 17 19 19 20 20 21 23 24 25 26 27 27 27 27 27 27 28 29 29 31 32 32 32 32 32 31 31 30 28 27 26 25 24 22 20 18 17 15 14 13 13 13 13 14 13 9 5 6 7 8 12 16 19 21 22 22 22 23 24 25 26 28 27 25 22 18 16 17 18 20 22 23
16 15 14 14 13 12 12 12 13 14 14 15 16 16 16 17 18 19 19 20 21 22 23 24 25 26 27 27 27 28 28 28 29 29 30 31 32 32 31 30 29 28 26 25 24 24 23 22 20 17 16 15 15 14 12 11 12 13 14 15 14 9 6 8 8 9 10 13 15 17 17 17 19 20 21 22 22 23 23 22 21 18 16 16 16 18 20 20
16 14 14 14 14 13 13 14 15 16 16 17 17 17 17 18 19 19 19 20 20 21 22 22 24 25 26 26 26 26 26 27 27 28 29 29 30 30 28 26 25 23 22 22 22 22 20 18 16 14 13 13 13 12 11 12 13 14 15 16 14 9 8 11 10 9 10 11 12 11 11 11 13 13 14 16 17 16 15 16 17 17 19 19 20 20 19 17
18 15 14 15 15 15 15 16 17 17 17 18 18 18 18 18 19 19 19 19 20 20 21 21 22 24 24 24 23 24 24 25 25 26 26 27 27 26 25 23 22 21 21 21 20 19 17 15 13 13 12 12 12 12 11 12 13 14 15 14 11 9 11 13 11 10 10 10 9 8 8 8 8 9 10 12 13 13 12 11 13 16 18 20 21 22 20 17
20 15 15 16 16 17 17 18 18 19 18 18 18 18 18 18 19 19 19 19 19 19 19 19 20 22 22 21 21 22 23 23 24 24 25 26 25 24 23 22 21 20 20 19 18 16 14 13 13 12 11 11 11 11 10 11 12 13 13 12 11 11 12 13 11 11 11 9 8 8 9 9 7 8 8 9 10 11 12 12 12 15 18 19 19 20 20 19
21 17 15 15 16 17 18 18 19 19 18 18 17 17 18 18 18 18 18 17 17 17 18 18 20 21 21 20 21 22 22 23 23 24 25 25 24 23 23 21 20 20 19 17 16 14 13 13 14 12 10 10 9 9 9 10 11 12 13 12 12 12 12 12 12 11 11 9 8 8 9 9 8 8 6 7 8 9 12 12 12 13 15 16 16 17 19 19
22 18 15 15 16 17 18 18 18 18 17 17 17 17 18 18 17 16 16 16 17 17 18 18 19 20 20 20 21 21 22 22 23 23 23 23 23 22 21 20 20 19 17 16 15 14 13 13 13 10 8 8 8 9 9 9 10 10 11 12 11 10 10 11 11 10 9 8 8 8 9 8 8 8 6 7 6 8 11 12 12 11 12 14 15 17 18 18
22 19 15 14 15 16 17 17 17 17 17 17 17 17 17 16 15 15 16 16 17 17 18 18 18 18 19 19 19 20 21 22 22 22 22 22 22 21 21 20 20 18 16 15 14 14 13 12 10 8 8 8 9 10 10 10 10 10 11 11 10 9 9 10 10 8 7 7 8 9 10 10 9 8 7 7 5 5 9 12 12 11 12 14 15 16 16 15
22 19 15 13 14 15 15 15 15 16 17 17 17 16 15 14 15 15 16 16 16 17 17 17 17 17 17 17 18 19 20 21 21 21 20 20 20 20 20 20 20 18 16 15 14 14 13 11 9 8 9 9 11 10 9 11 10 9 10 9 9 9 10 11 11 8 6 7 8 9 10 11 10 9 7 7 4 3 8 11 11 11 14 15 16 15 14 13
22 20 16 14 14 14 14 14 15 16 16 16 15 14 14 15 15 15 15 15 15 15 16 16 16 16 16 16 17 18 19 19 18 17 17 17 17 17 18 18 18 16 15 14 13 12 10 9 9 9 10 10 10 8 6 9 10 9 8 7 8 9 9 10 11 9 7 7 8 9 10 10 11 10 8 8 6 4 6 9 9 11 15 16 15 14 13 13
22 19 17 15 14 14 14 14 14 15 16 15 13 13 14 14 14 14 14 13 13 14 14 14 14 14 14 15 16 17 17 16 15 14 14 15 15 15 16 15 14 14 14 14 13 11 10 10 10 11 11 10 8 6 6 7 7 6 5 6 7 7 6 7 8 8 8 8 7 9 10 10 11 11 8 8 9 7 7 8 8 10 15 16 14 14 15 14
22 19 18 15 14 15 14 14 14 15 15 13 12 13 13 13 13 13 12 11 12 12 12 12 12 12 13 14 15 16 15 14 13 13 14 15 14 14 13 12 11 11 12 12 11 10 11 12 11 11 11 9 7 7 6 5 5 4 4 4 4 3 4 5 5 7 9 10 9 10 11 11 11 10 7 6 7 8 8 10 9 9 14 17 16 16 17 16
23 19 18 16 14 14 14 14 15 15 14 13 13 13 13 12 12 11 10 11 11 11 11 11 10 11 11 12 14 14 14 13 13 14 14 13 13 12 12 12 12 12 11 9 9 9 10 11 11 10 9 7 6 5 4 1 3 5 5 2 2 3 4 5 6 7 9 10 10 10 10 10 10 9 7 6 5 5 7 10 11 10 14 18 19 18 18 18
24 19 19 16 14 13 14 14 15 15 13 13 13 13 13 12 11 10 10 11 11 11 11 10 9 9 9 10 12 13 14 14 14 13 12 9 7 7 10 12 12 12 12 11 11 12 10 10 10 10 8 5 4 3 3 1 1 5 3 2 3 3 3 4 5 6 7 6 3 4 5 5 7 8 7 7 6 4 4 7 9 11 13 17 20 21 20 18
26 20 18 16 14 13 14 15 15 15 13 13 13 13 12 11 10 9 10 10 9 9 9 7 7 6 5 7 10 13 14 13 11 9 10 10 7 6 9 11 13 10 9 11 13 12 10 9 10 10 7 5 4 3 4 4 2 2 2 4 3 3 4 3 4 6 8 7 6 7 6 5 4 6 8 8 7 5 4 4 7 10 12 14 19 21 19 16
28 21 18 16 14 13 13 15 16 14 13 13 13 13 12 11 10 9 9 9 9 7 7 4 3 3 3 6 9 11 12 12 11 9 9 7 5 8 9 10 12 12 9 10 11 10 10 11 11 10 8 6 5 4 5 7 5 5 7 5 4 4 4 5 6 8 10 11 12 11 7 7 5 5 6 6 6 5 5 5 8 10 10 11 15 18 18 16
29 23 18 16 14 13 13 15 15 14 13 13 13 12 12 10 10 9 8 9 8 6 4 2 1 2 4 6 7 9 10 9 10 12 11 7 3 5 8 6 9 13 10 10 11 11 12 12 12 10 8 8 7 7 8 9 8 8 8 6 4 5 6 7 7 8 9 11 14 13 9 6 4 3 3 3 4 4 4 6 9 10 10 10 12 15 18 18
29 24 18 16 15 13 12 14 15 14 12 13 12 12 11 10 9 8 7 8 8 5 2 0 3 5 5 6 7 8 10 8 8 12 14 12 9 9 10 6 6 10 10 10 12 13 12 11 11 10 8 7 9 11 11 11 11 10 8 6 6 7 8 6 5 7 9 11 13 13 12 9 6 3 2 2 3 4 4 5 7 8 9 12 13 13 15 18
29 26 18 15 15 13 12 13 14 13 12 12 12 11 11 9 8 7 7 8 7 3 1 2 7 8 4 6 9 8 10 12 12 14 15 15 15 14 13 8 5 8 10 12 13 12 11 9 8 8 8 8 10 12 12 12 12 11 8 7 8 10 9 6 7 9 10 12 13 13 12 10 8 5 2 3 4 4 3 3 4 6 7 11 12 11 12 14
29 26 19 15 15 14 12 12 13 13 12 12 12 11 10 9 7 6 6 7 6 2 1 3 8 9 5 6 10 9 10 14 10 11 17 17 16 17 15 11 9 10 13 12 11 9 9 8 6 7 8 9 12 14 14 13 13 12 9 8 10 11 8 7 10 12 14 15 14 12 12 12 11 9 5 3 3 3 2 2 2 5 7 9 10 10 10 11
28 27 20 15 14 14 12 11 12 12 11 12 12 11 10 8 6 5 5 4 4 2 2 5 8 10 8 7 11 9 10 14 8 7 15 11 10 16 16 14 14 13 13 10 8 8 8 9 10 9 9 11 12 14 16 15 14 13 11 9 10 10 9 11 14 15 17 17 15 14 15 16 16 14 12 8 4 1 1 1 0 2 5 6 7 8 9 10
27 27 20 15 14 14 11 10 12 12 11 11 11 10 9 6 5 5 4 3 3 3 4 6 8 10 9 9 13 8 7 15 11 9 15 9 8 15 17 15 14 12 10 7 5 7 8 9 10 11 11 13 14 13 15 16 15 15 13 10 10 10 12 15 17 18 18 17 17 18 19 20 20 20 19 16 12 9 7 5 5 4 3 4 5 7 7 9
26 26 21 15 13 13 10 10 11 12 11 10 10 9 8 6 4 3 2 2 3 4 5 6 7 10 10 10 13 11 10 17 14 10 13 12 13 18 18 16 13 10 8 5 5 8 9 8 9 11 12 15 17 16 17 17 16 16 14 11 11 13 15 17 19 20 19 19 19 20 22 22 21 21 21 20 19 17 15 12 10 9 9 9 9 9 8 8
25 26 22 15 13 12 9 9 11 11 10 10 10 9 7 6 3 2 2 2 3 5 5 7 8 9 11 9 10 13 15 18 15 12 12 15 17 19 20 16 12 9 6 4 7 10 12 13 13 14 16 18 19 18 16 16 15 16 15 12 13 15 15 17 19 20 21 21 21 23 23 21 20 22 23 23 23 22 19 17 15 14 13 13 13 12 12 11
25 25 22 15 13 11 8 8 10 10 10 9 9 8 7 5 3 2 2 4 5 5 6 8 10 9 11 11 9 11 14 14 13 13 13 15 15 18 20 17 12 9 7 7 12 15 17 18 18 18 20 22 22 20 18 16 16 17 15 15 16 15 14 16 17 19 21 21 22 23 21 20 22 23 24 24 24 23 21 20 19 17 16 16 16 16 16 16
24 25 23 16 13 11 8 8 9 9 9 8 8 8 7 5 3 2 2 3 5 6 7 8 11 11 12 12 9 10 14 14 13 13 13 14 14 17 20 17 13 12 13 15 17 19 20 21 20 21 24 25 25 23 21 19 19 19 19 19 18 15 16 18 19 20 21 21 22 21 20 21 24 25 25 25 24 24 22 21 21 20 19 20 20 20 20 19
24 24 23 17 13 10 7 7 8 8 8 8 7 7 6 4 2 2 3 3 5 6 8 8 9 10 13 14 10 9 14 16 16 17 16 15 15 18 19 18 16 17 19 20 20 20 20 21 22 22 25 26 26 25 24 23 22 22 21 21 19 18 20 22 22 22 21 21 21 21 22 23 25 26 26 26 24 23 23 23 23 23 22 22 22 22 22 21
24 23 22 18 13 10 7 6 7 8 8 7 7 7 6 4 2 2 4 3 4 5 7 9 8 8 10 13 13 12 15 17 18 19 19 16 15 18 20 21 21 21 20 20 21 21 21 21 22 23 25 25 25 26 24 23 23 23 22 22 22 23 24 24 24 23 22 22 23 24 25 26 27 27 26 25 22 22 24 24 23 24 24 24 24 24 23 22
24 23 22 19 14 10 7 5 6 7 7 6 7 8 5 3 3 4 5 4 4 5 7 8 9 9 8 10 14 15 16 19 19 19 19 18 18 21 23 24 24 22 21 21 21 22 22 22 23 24 25 24 24 26 25 24 25 26 25 24 24 25 27 27 26 25 24 26 28 28 28 28 28 26 26 25 23 23 24 24 24 24 25 25 25 24 23 23
23 22 22 19 14 11 7 5 5 7 7 6 7 7 4 3 3 5 7 7 7 9 10 9 10 11 10 10 14 16 18 21 20 19 20 20 21 23 25 25 25 24 23 22 22 22 23 22 23 24 25 25 26 28 29 28 29 29 28 27 26 26 27 26 26 26 26 28 28 28 28 28 27 25 25 23 22 23 24 24 24 24 25 26 26 25 25 25
23 22 21 19 14 11 8 5 6 7 7 6 7 5 3 3 4 6 7 9 9 10 12 12 10 11 12 12 14 17 19 20 21 21 22 24 24 24 26 26 25 25 25 23 22 23 23 22 22 24 25 27 27 28 29 29 29 30 29 29 28 28 28 27 26 27 27 27 27 27 27 27 27 26 25 23 22 24 25 25 25 25 25 26 26 26 27 27
23 21 20 19 14 12 9 7 7 8 7 7 7 5 3 3 5 6 6 8 9 9 12 14 13 11 12 14 16 19 19 19 21 22 23 25 25 24 26 25 24 24 25 24 22 22 23 23 23 25 26 27 27 27 28 29 29 29 29 29 29 28 28 26 25 26 26 26 26 26 26 26 26 26 26 25 24 25 26 26 26 26 26 26 26 27 27 27
22 21 20 19 15 13 11 8 8 8 8 8 8 7 5 4 5 6 7 8 9 9 11 15 16 14 13 14 17 21 21 19 22 24 24 25 24 24 25 25 24 24 24 25 25 24 24 25 26 27 27 27 28 28 28 29 29 29 27 27 27 26 26 25 24 24 25 25 25 25 25 26 25 26 26 25 25 25 25 25 26 26 26 26 26 27 27 27
22 21 20 19 16 14 13 10 8 9 9 10 9 8 7 6 5 6 8 8 9 9 10 13 16 16 16 16 17 19 20 21 23 25 26 26 25 24 25 26 26 25 25 25 26 27 27 27 28 28 28 28 28 28 29 29 28 28 26 25 26 26 25 25 25 24 25 25 24 25 25 25 25 26 26 26 25 25 25 25 25 26 26 26 26 26 26 26
22 21 20 19 17 14 14 11 9 10 11 11 10 10 8 7 7 8 8 8 9 10 11 14 16 16 17 20 21 18 18 22 24 25 26 27 26 25 25 26 26 26 26 27 27 28 28 28 28 29 28 28 27 27 27 27 27 26 25 25 25 25 25 25 25 25 25 25 25 25 25 25 26 26 25 25 25 24 24 24 25 25 25 25 26 26 26 26
21 21 19 18 17 14 14 12 10 12 13 12 11 11 9 8 9 9 8 9 10 10 13 15 17 17 17 20 22 19 18 23 26 27 28 28 27 26 26 26 26 26 27 29 29 29 29 28 28 28 29 28 27 26 26 25 25 24 24 24 24 24 24 25 25 25 24 24 24 24 24 23 24 23 23 24 24 24 23 23 23 24 24 25 25 25 25 25
21 20 19 19 17 14 15 14 12 13 14 13 13 11 9 8 9 9 9 12 12 12 13 15 16 17 18 20 21 19 19 24 26 27 28 29 28 27 27 27 28 28 28 29 29 29 28 27 28 28 27 26 26 25 25 24 23 22 22 23 23 23 23 23 23 23 23 22 22 22 21 21 21 21 21 22 23 23 23 23 23 23 23 24 24 25 25 25
21 20 20 18 17 15 16 16 13 13 15 16 15 12 11 10 9 9 11 14 14 13 14 15 16 18 20 21 21 21 22 25 27 27 27 28 29 28 28 28 28 29 29 29 29 29 28 28 28 26 24 23 24 24 24 23 22 22 22 21 21 21 21 21 21 20 20 20 20 20 19 19 19 20 20 20 20 21 21 22 22 23 24 25 26 26 26 26
21 20 19 18 16 15 15 18 17 15 17 19 17 14 13 12 10 11 13 13 13 13 14 16 18 20 21 20 20 22 25 27 28 27 26 27 29 29 29 29 29 30 30 30 30 29 27 27 25 23 21 22 23 24 23 22 21 21 20 20 20 19 19 19 18 18 18 18 18 18 18 18 18 19 19 19 20 20 21 22 23 24 25 26 28 29 29 29
21 20 20 19 16 14 16 21 20 16 16 19 19 16 14 11 10 13 14 13 12 13 15 17 18 19 19 18 18 21 26 28 28 27 27 28 29 29 29 30 31 31 31 31 31 28 25 24 23 22 22 23 23 23 22 22 21 21 20 19 19 18 18 17 17 16 16 16 16 16 16 16 17 17 18 18 19 20 21 22 23 25 26 27 29 30 31 32
23 22 21 20 18 15 18 22 21 17 17 20 21 19 15 12 11 13 16 16 14 13 15 17 19 18 16 16 17 20 25 27 27 27 28 28 28 29 30 31 32 32 32 32 30 26 23 24 24 23 24 24 23 22 22 21 21 20 19 19 18 17 16 16 15 15 14 14 14 14 14 15 16 16 16 17 18 19 20 21 23 24 26 27 29 30 32 33
25 24 22 20 19 17 19 22 23 21 21 23 24 23 19 14 13 14 17 18 17 16 16 16 18 18 15 15 17 20 24 26 27 28 28 28 29 30 32 32 32 33 32 30 28 26 25 26 26 25 24 24 23 22 21 20 19 19 19 17 16 15 14 14 14 13 13 12 12 12 13 13 14 15 15 16 17 18 19 20 22 24 25 27 29 31 32 33
28 26 24 21 20 19 19 23 26 26 25 25 26 26 22 17 15 14 16 18 18 17 17 16 18 18 16 15 17 21 24 25 26 28 28 27 29 31 32 32 33 34 32 29 28 28 28 28 26 25 24 23 22 21 20 19 19 19 17 16 15 14 12 12 11 11 11 10 10 10 11 11 12 13 14 15 16 17 19 20 21 23 25 27 30 32 33 34
30 28 25 23 21 21 20 22 27 28 26 26 27 27 24 20 17 14 14 16 18 19 19 18 18 19 16 13 16 22 25 26 27 28 28 29 30 32 33 33 34 35 32 29 29 29 28 27 25 23 22 22 21 20 19 19 19 18 16 15 13 12 11 10 10 9 9 8 8 8 9 10 11 11 13 14 15 16 18 20 21 23 25 27 30 32 34 35
32 29 27 24 22 22 21 22 27 30 27 26 28 29 26 22 19 16 15 16 19 21 22 20 18 18 15 12 16 23 26 28 29 29 30 31 32 33 34 33 34 36 32 29 30 29 27 26 24 22 21 21 20 19 18 18 18 17 16 14 12 11 10 9 9 9 8 6 5 5 7 9 9 10 12 13 14 16 18 20 22 24 26 28 31 33 35 37
32 31 29 27 24 23 22 22 27 32 31 28 29 30 29 25 21 19 18 17 17 19 21 20 17 17 15 12 16 24 28 28 29 30 31 32 33 34 34 34 35 35 32 30 30 29 27 25 22 21 20 20 20 19 18 17 16 16 16 13 11 9 8 7 7 8 7 6 4 3 4 7 8 9 11 13 14 17 19 21 23 25 27 29 32 34 36 38
33 32 31 29 26 24 23 22 27 33 33 30 29 31 31 28 25 23 21 19 18 18 17 16 17 18 16 14 16 24 28 29 29 31 33 34 34 34 35 36 36 34 31 30 30 29 27 24 21 21 21 20 19 18 17 16 15 15 15 13 11 9 7 6 5 5 4 3 2 2 4 6 7 9 11 13 15 17 20 22 24 26 28 30 33 35 37 38
Wind_Direction
314 307 304 303 301 298 297 296 296 296 294 292 290 287 284 281 277 273 268 266 266 264 260 258 257 257 254 253 253 253 253 253 254 255 257 259 260 261 263 264 265 266 268 271 273 275 277 278 279 280 282 284 285 286 286 287 287 288 288 285 281 275 268 259 250 243 240 237 231 232 232 228 227 224 221 223 226 226 225 225 224 225 229 229 229 231 233 233
316 310 305 303 301 298 295 295 297 299 297 294 290 288 286 285 282 277 271 269 269 266 260 256 256 255 253 253 253 254 254 254 255 256 258 259 261 263 264 265 266 268 270 272 275 276 278 279 281 283 285 286 286 286 288 288 288 287 284 279 273 265 253 239 233 230 230 234 229 227 231 232 232 229 224 223 226 229 228 226 224 227 230 231 231 232 232 231
317 310 305 301 298 293 286 282 284 288 287 282 278 277 278 278 276 272 268 266 266 264 260 258 256 254 252 252 253 254 255 255 255 256 258 259 261 262 264 265 267 269 272 274 276 278 280 282 284 285 285 285 286 288 290 289 286 282 275 269 262 252 237 222 224 229 229 232 230 228 229 231 234 235 231 228 228 230 231 229 227 229 230 230 232 232 228 226
318 311 306 302 297 292 283 277 275 274 274 273 271 270 270 270 268 266 262 259 257 256 256 256 256 255 254 254 254 255 256 257 258 258 259 261 262 263 265 267 269 271 273 276 277 279 281 283 283 283 284 287 289 290 290 287 283 274 265 257 245 239 238 233 236 238 235 236 236 233 231 230 231 236 238 235 232 232 233 233 231 232 233 234 236 235 231 229
319 312 306 302 296 291 286 281 278 275 274 273 272 271 268 267 265 264 261 258 257 256 256 257 258 258 258 258 257 258 259 260 261 261 262 264 265 265 267 268 271 272 274 276 278 280 281 281 282 284 288 290 289 288 288 286 277 265 257 249 235 231 248 252 248 246 245 245 244 241 238 235 234 235 241 242 240 237 236 236 234 233 238 243 242 239 236 235
319 311 303 298 291 286 283 282 282 281 280 279 278 276 273 270 267 265 264 262 261 260 260 260 261 261 260 260 260 260 261 262 263 264 264 265 266 267 268 269 271 272 274 276 277 278 279 281 283 287 290 289 286 283 283 279 267 258 250 245 238 227 240 261 258 255 254 254 251 247 245 245 243 242 244 245 246 244 241 239 235 231 235 242 243 241 239 235
318 311 299 291 285 281 280 279 280 282 282 283 282 281 279 277 274 271 270 268 267 265 264 264 264 264 264 263 263 263 263 263 264 264 265 265 266 267 267 269 270 272 274 276 276 278 280 283 287 289 288 282 280 279 276 265 255 252 246 249 250 232 237 264 255 250 258 261 256 251 248 246 246 246 243 241 243 246 245 242 234 223 219 222 230 237 238 236
316 310 297 286 280 278 277 278 279 281 283 283 283 284 284 283 281 279 278 276 273 271 270 269 269 268 268 267 267 266 265 265 264 264 264 264 265 265 267 268 270 272 274 275 276 278 281 285 287 284 277 276 277 272 262 250 246 246 247 259 262 245 258 267 254 253 265 264 256 256 253 244 242 239 235 232 230 231 232 234 227 213 209 213 222 231 236 239
313 310 297 285 279 276 276 277 279 282 284 285 286 287 288 287 286 284 283 281 278 277 275 273 272 271 270 269 269 268 267 266 264 263 263 263 264 266 268 269 270 271 272 273 275 277 280 283 280 273 269 270 270 264 256 248 249 249 251 265 270 266 271 265 257 263 275 265 246 249 244 231 233 231 225 222 217 210 206 216 216 207 208 213 219 224 231 236
312 310 300 288 281 277 277 279 281 284 286 288 290 291 292 290 288 288 286 284 282 279 277 274 272 270 269 269 268 266 264 263 262 262 262 263 264 266 267 267 268 268 269 270 272 274 276 272 263 260 264 266 265 264 262 259 258 253 254 266 270 269 266 257 261 274 286 280 250 236 220 209 216 216 211 211 208 204 201 205 206 205 209 212 214 218 225 231
312 309 304 293 284 280 279 281 284 287 290 291 293 294 294 292 292 292 290 287 284 280 277 273 270 269 269 267 265 262 261 259 259 259 259 260 262 262 263 263 262 261 262 264 267 268 265 257 255 260 265 263 260 258 256 256 252 246 247 254 258 260 256 256 269 282 291 287 264 241 222 214 209 197 194 205 206 205 203 201 199 204 212 215 214 216 224 229
313 310 307 297 286 282 282 285 288 291 293 296 298 299 297 296 297 296 293 289 285 281 277 273 270 268 266 263 260 258 256 255 254 254 255 256 258 259 260 260 259 259 261 262 262 261 254 252 258 267 263 251 243 241 236 228 227 234 239 243 252 258 261 265 274 281 280 270 262 249 235 232 218 199 199 210 207 209 207 203 204 208 212 215 218 219 224 229
315 310 308 300 289 285 285 288 292 294 298 301 303 302 301 301 301 297 293 289 285 282 277 274 270 267 264 260 257 253 251 249 249 250 251 252 254 255 256 255 254 253 252 252 251 246 242 245 252 253 244 231 224 225 214 204 213 228 236 243 260 272 280 286 288 283 268 255 256 249 239 237 229 213 208 210 210 231 226 214 213 215 209 209 215 218 223 228
317 310 307 301 293 289 289 291 294 299 303 304 305 306 306 305 302 297 293 290 286 282 278 274 270 265 262 257 254 250 248 247 247 248 249 251 252 252 252 250 249 247 244 242 240 240 242 245 237 227 229 220 219 224 208 208 223 238 249 260 279 291 299 298 296 290 276 266 265 258 246 237 232 226 219 218 209 249 245 227 218 212 206 207 211 214 221 225
319 309 306 303 298 294 294 296 300 305 306 307 308 308 306 304 300 297 293 289 285 281 277 273 269 265 260 254 249 246 245 245 246 248 249 249 248 246 245 244 243 240 236 232 229 231 235 237 221 211 224 226 228 240 219 219 239 252 267 288 302 308 307 297 294 291 279 272 271 267 257 245 238 235 233 234 223 227 243 234 222 208 202 203 210 214 216 217
321 307 305 304 303 300 300 303 307 310 310 311 310 307 306 302 300 297 293 290 286 281 277 274 271 265 256 249 244 241 241 242 242 241 240 240 238 236 233 232 234 232 224 219 218 218 212 211 209 209 223 227 229 251 244 247 268 275 287 308 318 319 306 297 303 294 275 265 267 271 268 260 246 237 239 244 239 229 220 222 221 208 203 202 205 211 212 210
324 307 303 305 305 304 305 308 312 314 313 312 310 308 306 302 302 300 297 297 293 286 282 279 272 262 252 245 242 241 240 239 235 231 230 228 224 223 220 213 213 219 220 219 213 210 208 201 204 218 221 213 221 241 241 259 294 313 323 318 331 339 322 329 334 307 285 277 275 271 270 267 249 236 234 233 240 238 214 206 209 204 205 205 205 210 212 210
328 308 302 304 307 306 308 313 316 316 315 311 310 310 308 307 309 306 306 308 301 294 289 280 268 256 247 241 237 234 230 223 218 219 221 222 218 213 208 196 192 196 197 208 205 192 204 206 206 223 217 203 227 243 228 244 318 319 325 343 50 24 1 6 349 315 300 293 285 271 265 263 246 232 219 191 207 240 216 199 201 199 202 207 207 210 213 211
331 311 301 304 307 308 310 316 318 316 314 312 313 314 313 315 315 314 316 310 303 298 288 275 264 249 236 230 225 216 210 206 208 210 205 203 213 212 205 190 182 190 183 180 190 183 193 212 209 215 210 197 220 231 217 178 319 308 332 70 87 66 56 38 359 332 326 319 282 228 226 236 234 228 206 174 175 214 210 196 195 196 203 208 209 211 213 214
334 316 302 302 306 308 311 316 318 316 314 314 317 317 316 317 319 322 321 310 305 302 287 275 266 247 222 214 213 205 197 193 195 199 192 178 169 177 205 198 171 178 192 177 181 179 181 202 201 202 200 180 178 192 206 195 218 258 118 118 123 108 98 65 15 3 8 28 85 122 146 160 193 215 200 176 168 174 179 183 181 188 201 208 210 212 212 213
334 322 303 300 303 306 309 314 317 317 316 318 321 319 315 317 323 328 324 314 314 307 291 283 271 236 182 185 199 196 184 179 175 177 181 169 163 169 190 210 173 161 191 184 173 171 169 180 187 190 183 160 153 168 190 191 195 180 154 161 163 124 100 70 42 35 35 40 62 79 111 142 162 197 195 174 158 155 162 177 179 182 194 206 212 214 211 211
334 326 307 298 300 303 306 311 318 319 318 321 321 316 314 318 327 329 323 319 319 306 298 305 205 150 145 164 179 176 163 169 175 165 155 134 121 152 152 197 178 155 178 185 165 163 164 170 175 175 167 156 147 143 159 172 182 183 181 192 178 129 98 81 61 51 49 45 51 58 74 108 134 171 172 157 150 151 160 182 191 193 200 211 221 220 218 220
333 329 310 296 297 299 302 311 320 322 319 320 318 314 313 319 327 327 320 320 319 308 299 46 114 102 110 145 151 152 143 147 169 157 146 138 138 140 130 145 166 150 171 178 160 160 163 165 166 160 156 155 146 137 144 163 179 188 187 191 172 134 115 103 76 65 64 57 56 57 62 77 88 102 138 157 162 163 160 180 197 205 211 216 224 228 226 228
331 330 314 295 293 296 301 311 322 322 318 318 315 311 314 319 326 324 320 322 321 308 263 134 108 96 110 151 144 147 144 146 161 152 142 142 143 142 132 129 156 160 168 169 160 160 159 161 163 158 156 151 143 140 146 165 175 172 166 171 158 136 128 111 78 75 79 73 67 62 64 77 88 98 142 190 196 195 182 177 199 216 220 217 223 233 235 235
329 331 318 295 290 294 299 312 323 322 317 316 313 312 317 321 327 319 316 321 316 292 203 121 112 112 136 164 151 156 150 144 162 156 141 145 150 148 140 141 168 171 165 165 160 155 155 160 166 162 160 152 148 150 156 169 168 155 153 156 141 127 117 94 84 86 84 81 79 72 68 73 81 87 104 151 192 214 206 192 212 227 229 227 231 242 251 252
327 330 320 295 287 291 299 313 322 320 317 315 313 316 318 320 322 309 307 318 307 258 151 123 124 129 140 157 147 155 155 143 166 168 135 138 156 149 144 149 162 163 159 158 151 153 159 166 168 169 166 151 144 150 158 167 163 150 147 140 121 108 96 88 88 87 84 84 85 79 70 69 74 76 75 76 72 54 229 250 328 231 230 242 254 264 269 269
325 329 323 297 285 290 299 312 320 319 316 314 314 318 318 313 308 298 303 321 293 234 157 133 139 140 145 151 138 140 156 144 163 172 137 145 172 148 141 146 150 147 143 138 141 157 166 173 169 162 156 141 134 140 149 158 159 147 140 131 112 97 90 88 84 80 81 83 83 80 74 70 71 74 74 72 66 56 48 40 33 25 355 323 314 309 302 293
323 328 324 300 283 288 298 311 318 317 315 316 317 319 318 313 301 288 293 307 262 224 173 141 147 144 140 150 141 137 145 144 159 170 143 157 167 143 136 139 138 130 126 134 162 162 157 162 155 142 138 134 134 139 142 149 152 142 138 134 114 97 90 87 83 80 81 83 82 79 75 71 68 68 70 70 69 65 61 57 50 40 30 23 20 13 0 342
322 327 324 303 282 285 295 309 316 315 316 317 317 320 319 313 297 257 236 232 220 210 182 144 146 145 139 150 155 147 145 144 156 166 153 162 162 141 134 134 133 128 120 138 155 146 139 138 132 127 129 130 131 132 132 137 139 134 136 131 109 93 85 82 82 84 84 82 80 77 74 73 69 65 63 64 66 67 66 64 59 53 49 48 49 46 39 32
321 326 325 306 282 282 292 305 313 314 314 316 315 315 311 305 284 253 244 227 204 188 175 152 149 150 144 152 168 155 142 139 151 160 156 160 156 138 132 133 135 132 128 139 141 133 128 124 119 120 124 125 125 122 120 119 118 119 121 112 96 88 85 86 89 91 89 84 80 78 78 77 74 68 63 61 61 60 59 61 62 61 58 55 51 48 46 43
320 325 325 309 281 279 288 299 309 310 310 313 311 304 297 290 271 248 227 227 219 181 160 156 156 156 151 153 165 155 141 141 150 153 149 150 145 134 129 130 133 132 137 141 134 126 122 117 116 119 122 123 123 120 116 111 105 103 101 95 92 95 97 95 95 94 90 83 78 78 82 82 79 73 67 60 56 53 53 58 64 65 61 55 50 47 46 45
319 324 325 310 282 275 281 292 305 306 305 307 303 295 285 272 251 220 193 198 226 194 158 155 162 161 154 151 157 155 143 144 147 143 144 149 143 132 128 129 135 139 142 138 129 123 120 117 117 118 117 118 119 118 115 110 105 99 93 90 91 97 96 92 91 89 85 78 76 81 85 84 81 76 68 59 54 53 52 55 58 58 56 54 52 51 50 48
318 322 324 312 285 271 272 287 302 300 297 299 294 290 278 252 183 170 179 175 208 195 157 150 157 165 161 149 151 157 148 144 145 141 143 149 143 134 131 133 138 142 139 132 126 123 120 118 117 116 114 115 116 114 112 111 107 101 94 90 90 92 91 89 88 85 83 81 83 87 87 84 81 78 74 69 66 65 62 60 60 60 60 61 61 61 61 60
316 319 323 314 288 267 265 280 295 291 289 290 287 287 274 238 185 157 156 154 171 163 143 147 155 163 171 152 147 154 149 144 144 143 142 144 143 138 135 135 139 139 134 129 127 124 120 117 114 112 112 112 112 112 112 111 107 101 98 96 95 93 92 92 90 87 88 90 90 90 88 86 84 83 83 80 75 74 72 70 69 69 71 73 73 73 72 71
314 317 321 315 289 262 257 267 280 280 278 280 285 285 265 230 193 168 160 158 166 160 148 150 158 163 168 159 150 150 149 146 145 144 142 142 143 141 137 138 140 139 134 131 128 123 119 116 112 109 109 110 110 110 110 109 106 102 101 101 101 99 98 97 93 91 94 95 93 90 87 86 86 87 88 86 81 80 79 77 75 74 74 75 76 75 72 70
313 314 319 316 291 261 250 252 261 266 265 270 279 276 253 210 178 178 172 160 164 163 152 147 155 164 164 161 155 150 151 150 146 145 144 143 144 143 140 142 143 138 134 131 128 124 120 118 115 114 115 114 113 112 111 111 108 104 102 103 103 102 101 100 95 93 96 97 94 90 88 87 88 89 89 89 85 82 80 79 77 75 73 72 71 70 69 67
312 313 317 315 293 259 243 241 249 256 255 258 265 260 236 198 178 177 162 149 153 156 152 149 152 161 161 159 155 153 154 151 143 144 146 144 145 146 143 143 140 135 132 130 128 125 122 120 119 118 119 118 116 114 114 113 111 106 104 103 102 101 101 100 97 95 95 96 94 91 89 88 89 89 88 85 82 79 78 78 77 75 73 69 67 65 64 63
309 311 313 313 295 259 239 234 241 249 248 248 255 250 223 198 193 175 150 146 151 152 158 155 151 156 159 159 160 157 155 152 145 144 147 147 147 146 143 141 140 137 134 132 130 127 123 121 119 119 120 120 118 116 114 113 111 108 106 105 104 103 104 103 101 98 96 96 95 93 92 91 90 90 88 86 82 79 77 75 73 71 69 67 64 61 59 57
306 309 310 311 299 265 238 229 235 240 238 238 248 250 226 208 211 187 160 155 155 152 164 159 150 154 158 158 166 166 157 151 147 146 148 149 148 147 145 144 142 140 136 133 130 127 125 123 122 122 123 123 122 119 115 114 112 111 109 107 106 106 107 107 105 102 100 99 99 98 96 94 92 90 88 85 82 78 74 70 67 65 63 62 60 58 55 53
302 306 308 309 302 271 239 227 231 235 235 234 243 251 235 213 209 194 170 167 163 156 165 159 148 155 162 159 166 172 160 150 149 149 150 150 149 149 148 145 143 141 138 135 131 129 127 126 124 124 125 124 123 122 120 117 114 113 111 110 110 109 109 110 108 105 104 103 101 98 95 92 89 87 85 81 77 73 69 65 63 61 60 59 57 54 52 50
298 303 305 305 302 275 240 224 224 232 238 236 236 245 240 219 212 203 173 164 163 158 164 160 149 156 164 161 163 168 163 153 151 153 152 150 151 151 150 147 145 143 140 136 134 133 132 130 127 126 124 122 122 123 122 120 119 118 117 115 114 113 113 112 110 108 107 104 100 96 93 88 84 82 80 78 75 73 70 67 63 61 60 58 55 52 48 46
293 298 300 299 300 279 240 222 220 228 236 238 235 236 230 215 216 208 168 151 155 160 162 157 151 154 159 160 162 166 164 156 154 158 157 153 152 154 153 151 147 144 142 140 141 141 139 136 133 131 128 126 126 125 125 126 127 125 123 121 119 117 115 114 111 109 106 103 99 94 90 86 82 78 75 72 71 71 70 68 65 61 57 53 50 47 43 40
287 292 295 297 299 282 243 220 218 222 226 233 233 229 219 211 209 195 164 148 151 157 155 149 148 151 155 161 165 166 164 159 158 164 161 152 152 156 155 151 147 145 145 146 146 145 143 141 139 135 133 133 133 132 133 134 133 131 128 125 122 119 117 115 113 110 105 102 98 93 90 87 83 80 77 73 70 67 65 63 59 54 50 47 44 42 38 35
282 287 291 291 293 282 245 221 217 218 221 228 231 227 221 214 202 184 165 151 149 148 144 142 145 149 154 162 169 167 165 163 163 164 160 155 156 157 153 150 149 149 149 148 148 147 146 145 143 141 139 140 140 138 138 137 135 133 132 129 126 124 122 119 115 111 107 103 98 93 89 85 81 78 75 71 67 62 57 53 49 46 43 41 39 37 34 31
276 279 283 283 283 275 244 224 218 216 219 227 232 232 224 214 202 184 170 159 153 147 141 141 143 144 150 164 174 172 167 166 165 163 162 161 159 154 152 152 153 152 152 152 153 152 150 151 151 150 149 148 146 143 140 137 135 135 135 134 133 130 125 120 115 110 106 102 98 93 88 83 79 73 69 65 61 56 51 46 43 41 38 36 34 32 29 25
270 271 274 276 276 269 246 228 216 210 214 220 228 234 228 212 202 192 179 170 166 160 153 148 143 141 150 168 179 178 173 168 165 165 166 164 158 155 156 156 155 155 155 157 159 159 159 160 158 155 153 151 149 146 143 140 139 139 139 137 134 130 124 119 114 109 104 100 96 92 88 84 80 77 72 66 59 54 49 45 41 37 34 31 30 29 26 23
265 264 266 270 272 269 252 230 214 206 211 214 219 227 226 212 204 201 190 179 174 171 165 157 151 148 155 172 178 178 177 171 167 168 169 165 160 160 160 159 158 158 159 162 166 167 166 164 161 158 156 154 152 149 146 145 144 142 139 136 132 127 122 117 114 109 105 101 97 93 88 83 79 77 72 65 57 52 47 43 38 33 29 26 26 26 24 20
261 260 261 264 267 266 255 235 217 208 209 212 214 221 221 209 202 205 198 186 179 173 169 166 163 158 160 174 180 178 176 173 172 173 170 166 166 165 163 161 162 163 164 167 169 169 169 166 163 162 161 158 155 152 150 150 148 143 140 138 134 129 123 118 113 108 104 100 97 92 87 80 73 69 65 58 51 47 43 39 34 29 24 21 21 22 21 18
259 259 259 259 263 264 257 241 225 213 210 210 212 218 220 209 200 203 202 197 191 182 175 170 166 161 161 173 183 180 176 176 178 176 172 171 172 169 166 166 167 169 171 172 171 170 170 168 167 166 164 161 158 156 155 153 150 146 144 142 138 133 129 125 119 110 101 92 87 82 77 71 61 53 50 47 40 36 34 31 28 24 19 16 16 17 16 14
260 258 256 256 259 262 260 247 230 217 211 209 211 215 217 211 202 200 204 208 205 194 181 169 163 165 170 179 185 183 180 179 180 178 175 176 176 173 171 172 173 175 177 175 172 173 173 172 172 170 167 166 163 160 159 158 155 152 149 146 144 141 137 133 128 120 113 101 87 73 65 61 51 37 34 34 30 24 22 21 19 16 13 10 10 11 11 10
259 256 254 253 254 257 259 250 233 221 213 209 209 212 214 211 205 204 208 213 214 204 186 171 169 176 180 184 187 187 185 182 180 180 179 180 180 177 176 177 178 180 180 176 174 175 176 176 176 175 174 172 168 164 164 163 162 159 154 151 153 151 146 143 137 128 122 115 102 68 47 46 40 26 19 20 18 14 13 12 11 9 7 5 5 6 7 6
258 255 252 250 250 251 253 249 235 224 217 211 208 210 211 209 204 206 210 213 216 212 193 179 185 190 187 188 190 189 187 184 182 183 184 184 183 181 179 181 182 182 180 177 177 179 180 181 182 181 180 177 173 170 170 170 171 169 162 160 163 162 160 163 152 137 126 116 91 25 12 17 18 12 6 6 7 5 5 5 4 3 2 1 0 1 3 2
Height
10727 10725 10724 10723 10723 10722 10722 10722 10721 10721 10721 10721 10721 10722 10722 10722 10723 10723 10724 10724 10724 10725 10726 10726 10726 10726 10726 10726 10727 10727 10728 10728 10729 10729 10730 10730 10729 10730 10730 10730 10729 10729 10729 10728 10729 10729 10728 10728 10728 10727 10727 10726 10725 10725 10724 10724 10723 10721 10720 10718 10717 10716 10715 10713 10712 10712 10713 10713 10713 10711 10709 10707 10707 10708 10710 10712 10712 10712 10713 10713 10715 10718 10721 10722 10721 10721 10723 10726
10726 10725 10724 10723 10722 10722 10721 10721 10721 10721 10720 10720 10721 10721 10721 10722 10722 10722 10723 10723 10723 10724 10724 10724 10724 10724 10724 10724 10724 10725 10725 10726 10726 10727 10727 10727 10726 10727 10727 10726 10726 10726 10727 10727 10726 10726 10726 10726 10725 10725 10724 10723 10722 10722 10721 10721 10720 10718 10716 10715 10714 10713 10712 10711 10711 10712 10711 10711 10710 10709 10707 10706 10706 10707 10708 10710 10710 10709 10710 10711 10714 10717 10720 10720 10719 10719 10723 10727
10725 10724 10723 10722 10722 10721 10721 10720 10720 10720 10720 10720 10720 10720 10720 10721 10721 10721 10722 10722 10722 10723 10723 10723 10722 10722 10722 10722 10722 10723 10723 10724 10724 10724 10724 10724 10724 10724 10724 10724 10724 10724 10724 10724 10724 10723 10724 10724 10723 10722 10721 10721 10720 10719 10719 10718 10716 10715 10713 10712 10711 10710 10710 10711 10711 10711 10710 10709 10707 10706 10705 10705 10705 10704 10705 10707 10707 10707 10708 10711 10714 10717 10719 10719 10717 10718 10721 10724
10724 10723 10722 10721 10721 10720 10720 10720 10719 10719 10719 10719 10719 10719 10720 10720 10720 10720 10721 10721 10721 10721 10721 10721 10721 10720 10720 10720 10720 10721 10721 10721 10722 10722 10722 10721 10721 10721 10721 10721 10722 10722 10722 10722 10722 10721 10722 10722 10721 10720 10719 10718 10717 10717 10716 10715 10713 10711 10710 10709 10709 10709 10710 10711 10711 10710 10708 10707 10705 10704 10703 10703 10703 10703 10703 10705 10706 10706 10708 10711 10715 10717 10718 10716 10715 10716 10718 10719
10723 10722 10721 10720 10720 10719 10719 10718 10718 10718 10718 10718 10718 10718 10718 10719 10719 10719 10719 10719 10720 10720 10720 10719 10718 10718 10718 10718 10718 10718 10719 10719 10719 10719 10719 10719 10718 10718 10719 10719 10720 10720 10720 10720 10720 10719 10719 10719 10718 10718 10717 10716 10715 10714 10713 10712 10710 10709 10708 10707 10707 10708 10708 10708 10708 10708 10706 10705 10703 10702 10702 10702 10702 10703 10703 10704 10705 10706 10708 10711 10714 10717 10717 10713 10712 10713 10714 10715
10722 10721 10720 10719 10718 10718 10717 10717 10717 10717 10717 10716 10717 10717 10717 10717 10717 10717 10717 10717 10717 10717 10717 10717 10716 10715 10715 10715 10716 10716 10716 10717 10716 10716 10716 10715 10715 10715 10716 10717 10717 10718 10718 10718 10718 10717 10717 10716 10716 10716 10716 10714 10712 10711 10711 10710 10708 10707 10706 10705 10705 10706 10706 10706 10706 10705 10704 10702 10701 10700 10700 10701 10702 10702 10703 10703 10704 10705 10708 10710 10713 10717 10715 10710 10708 10709 10710 10712
10721 10720 10719 10718 10717 10717 10716 10716 10716 10715 10715 10715 10715 10715 10715 10715 10715 10715 10715 10715 10715 10715 10714 10714 10713 10712 10712 10712 10713 10713 10714 10714 10714 10713 10713 10712 10712 10712 10713 10714 10715 10715 10716 10716 10715 10715 10714 10714 10715 10714 10713 10711 10709 10710 10710 10709 10706 10705 10704 10703 10704 10705 10704 10704 10704 10703 10702 10700 10699 10698 10699 10700 10700 10701 10701 10701 10702 10703 10706 10708 10711 10714 10713 10708 10706 10706 10707 10711
10719 10718 10717 10716 10716 10715 10715 10715 10714 10714 10714 10713 10713 10713 10713 10713 10713 10712 10712 10713 10712 10712 10712 10711 10710 10709 10709 10710 10710 10710 10710 10711 10710 10710 10709 10709 10708 10709 10710 10712 10713 10713 10713 10713 10713 10713 10713 10713 10713 10712 10710 10709 10708 10708 10708 10707 10705 10704 10702 10702 10703 10703 10703 10703 10702 10701 10700 10699 10698 10697 10697 10698 10699 10699 10699 10699 10700 10702 10704 10706 10708 10711 10711 10708 10706 10705 10707 10711
10718 10717 10716 10715 10714 10714 10713 10713 10712 10712 10712 10712 10712 10712 10711 10711 10710 10710 10710 10710 10710 10709 10709 10708 10707 10706 10706 10707 10707 10707 10707 10707 10707 10707 10706 10705 10705 10706 10708 10709 10710 10711 10711 10711 10711 10711 10712 10712 10711 10709 10708 10708 10707 10706 10706 10705 10704 10702 10701 10701 10701 10701 10702 10702 10702 10701 10699 10698 10697 10697 10696 10697 10698 10699 10698 10698 10699 10701 10703 10705 10707 10709 10709 10708 10706 10706 10708 10710
10717 10715 10714 10713 10712 10712 10711 10711 10710 10710 10710 10710 10710 10710 10709 10708 10708 10708 10708 10707 10707 10707 10706 10706 10705 10703 10703 10704 10705 10705 10704 10704 10704 10703 10703 10703 10703 10704 10706 10707 10708 10709 10709 10709 10710 10710 10710 10709 10707 10706 10706 10707 10706 10706 10705 10704 10703 10701 10700 10700 10700 10701 10701 10701 10701 10700 10698 10697 10696 10696 10696 10697 10698 10699 10698 10698 10699 10701 10703 10705 10706 10707 10708 10707 10706 10707 10707 10708
10716 10714 10712 10711 10711 10710 10709 10709 10709 10709 10708 10708 10708 10708 10707 10706 10705 10705 10705 10704 10704 10704 10703 10703 10702 10701 10701 10702 10702 10702 10701 10701 10701 10701 10700 10701 10701 10702 10703 10704 10706 10706 10707 10708 10708 10708 10707 10705 10704 10704 10706 10706 10706 10705 10704 10703 10702 10700 10700 10700 10700 10700 10700 10700 10700 10699 10698 10696 10695 10695 10696 10697 10698 10698 10698 10698 10699 10701 10702 10704 10705 10706 10707 10707 10707 10706 10706 10706
10715 10713 10711 10710 10709 10708 10708 10707 10707 10707 10707 10707 10706 10706 10705 10704 10703 10703 10702 10702 10701 10701 10700 10700 10699 10699 10698 10699 10699 10698 10698 10698 10698 10698 10698 10699 10699 10700 10701 10703 10703 10704 10706 10707 10707 10706 10705 10703 10703 10705 10706 10705 10705 10703 10702 10701 10700 10699 10699 10699 10699 10699 10699 10698 10698 10698 10697 10695 10694 10694 10695 10697 10698 10698 10698 10698 10699 10701 10702 10703 10704 10706 10707 10708 10707 10706 10705 10706
10714 10712 10710 10709 10708 10707 10706 10706 10706 10705 10705 10705 10704 10704 10702 10702 10701 10701 10700 10699 10698 10698 10697 10697 10696 10696 10696 10696 10695 10695 10695 10695 10695 10695 10696 10697 10698 10699 10699 10700 10701 10702 10704 10705 10704 10703 10702 10702 10703 10704 10704 10704 10703 10701 10700 10700 10699 10698 10698 10699 10699 10698 10697 10696 10696 10696 10696 10695 10693 10694 10695 10698 10699 10699 10698 10698 10699 10700 10701 10702 10704 10705 10707 10707 10707 10706 10705 10705
10713 10711 10709 10708 10707 10706 10705 10705 10704 10704 10704 10703 10703 10702 10701 10700 10699 10699 10698 10697 10696 10695 10694 10694 10693 10693 10693 10692 10692 10692 10692 10692 10693 10694 10695 10695 10696 10697 10697 10698 10699 10700 10702 10703 10702 10702 10701 10701 10702 10703 10703 10702 10701 10700 10700 10699 10698 10698 10698 10698 10698 10697 10696 10694 10694 10695 10695 10694 10693 10693 10695 10697 10699 10699 10699 10698 10699 10700 10700 10702 10703 10705 10706 10706 10706 10705 10705 10705
10712 10710 10708 10707 10706 10705 10704 10704 10703 10703 10702 10702 10701 10700 10699 10698 10697 10696 10695 10695 10694 10693 10692 10691 10690 10690 10690 10689 10689 10689 10689 10690 10691 10693 10693 10694 10694 10694 10695 10696 10697 10699 10700 10701 10700 10700 10701 10701 10701 10701 10701 10701 10701 10700 10700 10699 10698 10698 10698 10697 10696 10696 10694 10693 10693 10694 10694 10694 10693 10692 10693 10696 10698 10699 10699 10698 10698 10699 10700 10701 10703 10704 10705 10705 10706 10706 10706 10706
10710 10709 10707 10706 10705 10704 10703 10703 10702 10701 10701 10700 10699 10699 10697 10696 10695 10694 10693 10693 10691 10690 10689 10688 10688 10687 10687 10687 10687 10687 10687 10689 10690 10691 10691 10691 10692 10692 10693 10694 10696 10698 10699 10699 10699 10699 10700 10699 10700 10700 10701 10701 10701 10701 10700 10699 10698 10698 10698 10697 10696 10695 10693 10693 10693 10693 10693 10694 10694 10692 10692 10694 10696 10698 10699 10698 10698 10699 10700 10701 10702 10704 10704 10705 10705 10706 10706 10706
10709 10708 10706 10705 10704 10703 10702 10701 10700 10700 10699 10698 10698 10697 10696 10695 10694 10693 10692 10691 10689 10688 10687 10686 10686 10685 10685 10685 10685 10685 10686 10687 10689 10689 10689 10689 10689 10690 10691 10693 10695 10697 10698 10698 10699 10699 10699 10698 10699 10700 10701 10702 10702 10701 10700 10699 10698 10698 10698 10697 10696 10694 10693 10693 10693 10693 10693 10694 10694 10693 10691 10691 10694 10697 10698 10698 10697 10698 10699 10701 10702 10704 10704 10705 10705 10706 10706 10707
10708 10707 10705 10704 10703 10702 10701 10700 10699 10698 10697 10697 10696 10695 10694 10693 10692 10691 10690 10689 10687 10686 10685 10684 10684 10684 10683 10683 10683 10684 10685 10686 10686 10687 10687 10688 10688 10689 10690 10692 10694 10695 10696 10698 10699 10699 10699 10698 10698 10699 10701 10702 10702 10701 10701 10699 10698 10698 10698 10697 10696 10695 10694 10693 10694 10693 10694 10694 10694 10693 10691 10690 10692 10695 10697 10698 10697 10697 10699 10701 10702 10703 10704 10704 10705 10706 10706 10707
10707 10705 10704 10703 10702 10701 10700 10699 10697 10696 10696 10695 10695 10694 10693 10692 10691 10690 10689 10687 10685 10684 10683 10683 10682 10682 10682 10681 10682 10682 10683 10683 10684 10685 10686 10688 10689 10689 10690 10691 10692 10694 10695 10696 10697 10697 10698 10698 10698 10699 10701 10702 10702 10701 10700 10699 10699 10698 10697 10697 10696 10696 10696 10695 10694 10694 10694 10694 10693 10693 10692 10691 10692 10694 10696 10698 10698 10697 10698 10700 10701 10702 10703 10703 10704 10705 10706 10707
10706 10704 10703 10702 10701 10700 10699 10697 10696 10695 10695 10694 10694 10693 10692 10691 10690 10689 10687 10685 10684 10683 10682 10681 10681 10680 10680 10680 10680 10680 10681 10682 10684 10685 10686 10687 10688 10689 10690 10691 10691 10693 10694 10695 10695 10696 10697 10699 10699 10699 10700 10702 10702 10701 10701 10700 10700 10700 10699 10698 10698 10698 10697 10697 10695 10694 10693 10693 10693 10693 10693 10693 10693 10694 10695 10697 10698 10698 10698 10699 10700 10701 10702 10703 10704 10704 10705 10707
10705 10703 10702 10701 10700 10699 10698 10696 10695 10694 10694 10693 10693 10692 10691 10690 10689 10687 10686 10684 10683 10683 10681 10680 10680 10679 10679 10679 10680 10680 10680 10682 10683 10685 10686 10687 10688 10688 10689 10691 10691 10692 10694 10695 10695 10696 10697 10698 10699 10699 10700 10701 10701 10701 10701 10702 10702 10701 10700 10699 10699 10699 10699 10698 10696 10695 10694 10693 10692 10693 10693 10694 10694 10694 10695 10696 10698 10699 10699 10699 10700 10701 10702 10703 10704 10704 10705 10706
10703 10701 10700 10700 10698 10697 10696 10695 10694 10694 10693 10692 10691 10690 10689 10689 10687 10686 10685 10684 10683 10682 10681 10680 10680 10679 10679 10680 10680 10680 10680 10682 10683 10684 10685 10687 10689 10690 10690 10692 10691 10691 10693 10694 10695 10696 10697 10698 10699 10699 10700 10700 10701 10701 10702 10702 10702 10702 10701 10701 10701 10700 10700 10699 10698 10696 10695 10694 10693 10693 10693 10694 10694 10694 10694 10696 10698 10700 10700 10700 10701 10702 10703 10703 10704 10704 10705 10706
10702 10700 10699 10698 10697 10696 10695 10694 10694 10693 10692 10691 10690 10689 10688 10688 10686 10685 10684 10683 10682 10682 10681 10680 10679 10679 10680 10680 10681 10681 10680 10682 10683 10683 10684 10686 10689 10690 10691 10692 10693 10692 10693 10694 10695 10696 10697 10699 10700 10700 10701 10701 10701 10701 10702 10702 10703 10703 10703 10702 10702 10702 10701 10701 10700 10698 10697 10695 10694 10694 10694 10694 10695 10695 10696 10697 10699 10700 10701 10702 10702 10703 10703 10704 10704 10705 10705 10706
10701 10699 10698 10697 10696 10695 10694 10693 10693 10692 10691 10690 10689 10688 10687 10686 10685 10684 10683 10682 10682 10681 10680 10679 10678 10679 10681 10681 10681 10681 10681 10682 10683 10683 10684 10686 10688 10689 10690 10692 10693 10694 10694 10695 10695 10696 10697 10698 10699 10700 10701 10702 10702 10702 10702 10703 10704 10704 10704 10704 10703 10703 10702 10702 10701 10701 10699 10697 10697 10696 10696 10696 10696 10697 10698 10698 10700 10701 10702 10703 10703 10704 10704 10705 10705 10705 10706 10706
10699 10698 10696 10695 10694 10693 10693 10693 10692 10691 10690 10689 10687 10687 10686 10685 10684 10683 10682 10682 10681 10681 10680 10679 10678 10679 10681 10681 10681 10682 10681 10682 10684 10684 10683 10685 10687 10688 10689 10690 10693 10694 10695 10695 10696 10697 10698 10698 10700 10700 10701 10702 10702 10702 10703 10704 10705 10705 10705 10705 10704 10703 10703 10703 10703 10702 10701 10700 10699 10698 10698 10698 10698 10698 10699 10699 10700 10701 10703 10704 10704 10705 10705 10705 10706 10706 10706 10706
10698 10696 10695 10694 10693 10692 10692 10692 10691 10690 10689 10688 10686 10686 10685 10684 10683 10682 10681 10681 10681 10681 10679 10679 10679 10679 10681 10681 10681 10682 10682 10682 10685 10686 10685 10686 10688 10688 10689 10690 10692 10694 10695 10696 10697 10697 10698 10698 10699 10700 10701 10701 10702 10703 10703 10704 10705 10705 10705 10705 10705 10704 10704 10704 10703 10703 10702 10702 10701 10700 10699 10699 10699 10699 10699 10700 10701 10702 10703 10704 10705 10705 10706 10706 10706 10706 10706 10705
10697 10695 10694 10692 10692 10691 10691 10691 10690 10689 10688 10687 10685 10685 10684 10683 10682 10682 10681 10681 10681 10681 10679 10679 10679 10680 10681 10681 10681 10682 10682 10682 10686 10687 10686 10688 10689 10689 10689 10691 10693 10694 10695 10697 10698 10698 10698 10698 10698 10698 10700 10701 10702 10704 10704 10705 10706 10706 10706 10706 10705 10705 10705 10704 10704 10703 10703 10703 10703 10702 10700 10700 10700 10700 10700 10701 10702 10702 10703 10704 10705 10705 10705 10705 10705 10705 10705 10704
10696 10694 10692 10691 10690 10690 10690 10690 10688 10687 10686 10685 10685 10684 10683 10682 10681 10681 10681 10681 10681 10681 10680 10679 10680 10680 10681 10682 10682 10682 10682 10682 10685 10688 10687 10688 10689 10689 10690 10692 10694 10695 10696 10697 10698 10698 10698 10698 10699 10699 10700 10701 10702 10704 10705 10706 10707 10706 10707 10707 10707 10706 10706 10705 10704 10704 10705 10705 10704 10703 10702 10702 10702 10702 10702 10703 10703 10704 10705 10705 10705 10705 10705 10706 10705 10705 10705 10704
10695 10693 10691 10690 10689 10689 10689 10689 10687 10686 10685 10685 10684 10683 10682 10682 10681 10680 10680 10680 10681 10680 10680 10680 10680 10681 10681 10683 10683 10682 10682 10682 10685 10687 10688 10689 10689 10689 10690 10692 10694 10696 10697 10698 10698 10698 10698 10699 10699 10700 10701 10702 10703 10705 10707 10708 10708 10707 10708 10709 10708 10708 10708 10707 10706 10706 10707 10707 10706 10705 10705 10705 10705 10704 10704 10705 10706 10707 10707 10707 10707 10707 10706 10707 10707 10706 10706 10705
10694 10692 10690 10689 10688 10688 10688 10688 10686 10685 10684 10684 10683 10682 10682 10681 10680 10680 10680 10680 10681 10680 10680 10680 10681 10681 10681 10682 10683 10683 10683 10684 10686 10687 10688 10690 10691 10690 10690 10692 10695 10696 10698 10699 10700 10700 10700 10700 10700 10701 10702 10703 10705 10707 10708 10710 10710 10710 10710 10711 10709 10709 10709 10709 10709 10709 10709 10709 10709 10708 10708 10708 10707 10706 10706 10707 10708 10709 10710 10710 10709 10709 10708 10708 10707 10707 10707 10706
10693 10691 10689 10687 10687 10687 10687 10687 10685 10684 10683 10683 10683 10682 10681 10680 10680 10679 10680 10681 10681 10681 10681 10681 10681 10681 10681 10682 10684 10684 10684 10685 10687 10688 10690 10691 10692 10691 10691 10693 10696 10697 10699 10700 10701 10701 10701 10701 10702 10703 10703 10704 10705 10707 10709 10711 10712 10713 10713 10712 10711 10712 10712 10711 10711 10711 10711 10711 10711 10711 10711 10711 10709 10708 10708 10709 10710 10711 10711 10711 10711 10711 10710 10709 10708 10708 10708 10707
10691 10690 10688 10686 10686 10686 10686 10685 10684 10683 10683 10682 10682 10682 10681 10680 10680 10679 10680 10680 10681 10681 10681 10681 10682 10682 10682 10682 10684 10685 10685 10686 10687 10689 10691 10693 10693 10693 10693 10694 10697 10699 10700 10701 10702 10703 10703 10704 10705 10706 10706 10706 10707 10708 10709 10712 10713 10715 10715 10714 10714 10715 10714 10713 10713 10713 10713 10714 10714 10714 10714 10713 10711 10710 10710 10710 10713 10713 10713 10712 10712 10711 10711 10710 10710 10709 10709 10708
10690 10689 10687 10685 10685 10685 10685 10684 10684 10682 10682 10682 10682 10681 10680 10680 10680 10679 10680 10681 10681 10682 10682 10682 10684 10684 10684 10684 10684 10686 10686 10687 10688 10689 10690 10693 10694 10694 10695 10696 10698 10701 10702 10703 10704 10705 10706 10707 10707 10708 10708 10709 10709 10710 10711 10713 10714 10715 10716 10717 10717 10717 10716 10716 10716 10716 10717 10717 10717 10717 10716 10714 10713 10712 10712 10713 10716 10717 10715 10714 10713 10713 10713 10712 10711 10711 10710 10709
10689 10687 10686 10684 10684 10684 10684 10683 10683 10681 10681 10681 10681 10681 10680 10680 10680 10680 10680 10681 10681 10682 10683 10684 10684 10685 10686 10686 10686 10687 10687 10688 10689 10691 10691 10693 10695 10696 10696 10698 10700 10703 10704 10705 10706 10707 10708 10709 10710 10710 10710 10711 10712 10712 10713 10715 10716 10717 10718 10719 10720 10719 10719 10719 10720 10720 10720 10721 10720 10719 10718 10716 10715 10715 10715 10716 10719 10719 10718 10717 10716 10715 10715 10714 10714 10713 10712 10711
10687 10686 10685 10683 10683 10683 10682 10682 10682 10680 10680 10680 10681 10681 10680 10680 10680 10679 10679 10680 10681 10681 10682 10683 10684 10685 10687 10688 10688 10688 10689 10689 10690 10692 10693 10694 10696 10697 10698 10699 10702 10704 10705 10707 10708 10709 10710 10711 10712 10712 10713 10714 10715 10715 10716 10718 10718 10719 10720 10721 10722 10722 10722 10723 10723 10723 10723 10723 10723 10722 10720 10719 10719 10719 10718 10719 10721 10721 10720 10719 10718 10717 10716 10716 10715 10715 10714 10712
10685 10684 10684 10682 10681 10681 10681 10681 10680 10680 10679 10680 10680 10680 10680 10679 10679 10679 10678 10679 10680 10681 10681 10682 10684 10686 10687 10688 10689 10689 10690 10691 10691 10693 10694 10694 10697 10699 10699 10701 10703 10704 10706 10708 10710 10710 10711 10713 10714 10715 10716 10716 10718 10718 10719 10720 10721 10722 10722 10723 10724 10725 10725 10726 10726 10726 10725 10725 10725 10724 10723 10722 10722 10722 10721 10722 10723 10722 10721 10720 10720 10719 10718 10717 10717 10716 10715 10714
10684 10683 10682 10681 10680 10680 10680 10680 10679 10679 10679 10680 10680 10680 10680 10679 10679 10679 10679 10679 10680 10681 10682 10682 10684 10686 10687 10689 10690 10690 10691 10693 10693 10694 10695 10696 10698 10700 10701 10703 10705 10707 10707 10709 10711 10712 10713 10715 10716 10717 10718 10719 10720 10721 10722 10723 10724 10724 10725 10726 10726 10727 10728 10728 10728 10728 10727 10727 10726 10726 10725 10725 10725 10724 10724 10725 10724 10723 10722 10722 10722 10721 10720 10719 10718 10717 10717 10716
10682 10682 10681 10680 10679 10679 10679 10679 10678 10678 10678 10679 10680 10680 10680 10680 10679 10679 10679 10680 10680 10681 10682 10682 10683 10685 10687 10689 10691 10691 10691 10693 10694 10695 10696 10698 10700 10702 10703 10705 10707 10709 10709 10710 10711 10714 10715 10717 10718 10719 10720 10721 10722 10723 10724 10725 10726 10726 10728 10728 10728 10729 10730 10730 10730 10730 10729 10729 10729 10728 10728 10727 10727 10726 10726 10726 10726 10725 10724 10724 10724 10723 10722 10721 10720 10719 10718 10717
10680 10680 10680 10678 10678 10678 10678 10678 10677 10677 10677 10678 10679 10680 10680 10680 10680 10679 10679 10680 10680 10681 10682 10683 10683 10685 10687 10689 10692 10692 10692 10693 10695 10696 10697 10699 10702 10704 10705 10706 10708 10709 10711 10712 10714 10715 10717 10719 10719 10720 10722 10723 10724 10725 10726 10727 10728 10729 10729 10730 10730 10731 10731 10732 10732 10731 10731 10731 10731 10731 10730 10730 10729 10729 10728 10728 10728 10727 10727 10726 10725 10725 10724 10723 10722 10721 10720 10719
10679 10679 10678 10677 10677 10677 10677 10677 10677 10676 10676 10677 10679 10679 10680 10680 10680 10679 10679 10680 10680 10681 10682 10683 10684 10685 10687 10689 10692 10694 10694 10695 10696 10698 10700 10701 10703 10705 10707 10708 10710 10711 10712 10714 10716 10717 10719 10721 10721 10722 10724 10725 10726 10728 10729 10729 10730 10730 10731 10732 10732 10733 10733 10733 10733 10733 10733 10733 10733 10732 10732 10732 10731 10731 10730 10730 10730 10729 10729 10728 10727 10726 10725 10724 10723 10722 10721 10719
10677 10677 10676 10676 10675 10675 10676 10676 10676 10675 10675 10677 10678 10679 10679 10679 10679 10679 10679 10679 10680 10681 10682 10683 10684 10685 10688 10690 10692 10694 10695 10696 10697 10699 10701 10702 10704 10706 10708 10709 10711 10713 10714 10715 10717 10719 10720 10722 10723 10725 10725 10726 10728 10729 10730 10731 10731 10732 10733 10733 10734 10734 10735 10735 10735 10735 10735 10735 10735 10734 10734 10733 10733 10733 10732 10732 10731 10731 10730 10729 10728 10727 10726 10725 10724 10722 10721 10720
10676 10675 10674 10674 10674 10674 10674 10675 10675 10674 10674 10675 10677 10678 10679 10679 10679 10679 10679 10679 10680 10681 10682 10683 10684 10685 10688 10691 10694 10695 10697 10697 10699 10700 10701 10702 10704 10706 10708 10709 10711 10713 10716 10717 10718 10720 10722 10723 10725 10726 10727 10728 10729 10730 10731 10732 10733 10733 10734 10735 10735 10736 10736 10737 10737 10737 10737 10737 10736 10736 10735 10735 10735 10734 10733 10733 10732 10732 10731 10730 10729 10728 10727 10726 10724 10723 10722 10721
10674 10673 10672 10672 10672 10672 10673 10673 10673 10673 10673 10673 10675 10677 10678 10679 10678 10678 10679 10679 10680 10681 10682 10683 10684 10685 10687 10691 10694 10695 10697 10698 10699 10701 10703 10703 10705 10707 10709 10711 10713 10715 10717 10719 10720 10722 10723 10725 10726 10727 10728 10729 10730 10731 10732 10733 10734 10735 10736 10736 10737 10738 10738 10739 10739 10739 10739 10739 10738 10738 10737 10737 10736 10736 10735 10734 10733 10733 10732 10731 10730 10728 10727 10726 10725 10724 10722 10721
10671 10671 10670 10670 10670 10670 10671 10672 10671 10671 10671 10671 10673 10676 10677 10678 10678 10677 10678 10679 10680 10681 10681 10682 10684 10686 10687 10691 10694 10695 10696 10697 10699 10702 10704 10705 10706 10707 10709 10712 10714 10716 10718 10720 10722 10724 10725 10726 10728 10729 10730 10731 10732 10733 10733 10735 10736 10736 10737 10738 10739 10739 10739 10740 10740 10740 10740 10740 10740 10739 10739 10738 10738 10737 10736 10735 10734 10733 10732 10730 10729 10728 10727 10725 10724 10723 10721 10720
10669 10668 10667 10667 10667 10668 10669 10669 10669 10670 10671 10671 10672 10674 10676 10677 10677 10677 10677 10678 10679 10681 10682 10683 10684 10686 10689 10692 10695 10695 10696 10697 10699 10702 10705 10705 10707 10709 10711 10713 10715 10717 10719 10721 10723 10725 10727 10728 10729 10730 10730 10732 10733 10734 10735 10736 10737 10738 10739 10739 10740 10740 10741 10741 10741 10741 10741 10741 10741 10740 10740 10739 10738 10737 10736 10735 10734 10733 10732 10731 10730 10728 10727 10726 10724 10723 10721 10719
10665 10664 10664 10664 10665 10665 10666 10667 10668 10669 10670 10670 10671 10672 10675 10676 10676 10676 10677 10677 10679 10681 10682 10683 10684 10686 10689 10693 10695 10697 10697 10697 10700 10703 10705 10706 10708 10710 10712 10714 10716 10718 10720 10722 10724 10726 10728 10729 10730 10731 10732 10733 10734 10735 10736 10737 10738 10739 10739 10740 10741 10741 10742 10742 10742 10742 10742 10742 10741 10741 10740 10740 10739 10738 10737 10736 10735 10734 10733 10732 10731 10729 10728 10726 10725 10723 10721 10718
10661 10660 10661 10662 10663 10663 10663 10664 10666 10667 10667 10668 10669 10670 10672 10675 10675 10676 10676 10677 10678 10680 10682 10683 10683 10684 10689 10692 10695 10697 10698 10699 10700 10702 10704 10707 10709 10711 10712 10714 10716 10719 10721 10723 10725 10727 10728 10729 10730 10732 10733 10734 10735 10736 10737 10738 10739 10740 10741 10742 10742 10742 10743 10743 10743 10743 10743 10742 10742 10741 10741 10740 10740 10739 10738 10738 10737 10735 10734 10733 10731 10729 10728 10726 10725 10723 10721 10719
10656 10657 10659 10660 10660 10660 10660 10661 10663 10664 10664 10665 10667 10668 10670 10673 10674 10675 10675 10676 10677 10678 10679 10681 10681 10683 10687 10691 10694 10695 10697 10699 10701 10702 10705 10708 10710 10711 10713 10715 10717 10719 10721 10723 10725 10727 10728 10730 10731 10732 10733 10734 10736 10737 10738 10738 10739 10740 10741 10742 10742 10743 10743 10743 10743 10743 10743 10742 10742 10741 10741 10740 10740 10739 10739 10738 10737 10736 10734 10733 10731 10730 10728 10726 10725 10723 10721 10718
10652 10654 10656 10657 10657 10657 10657 10659 10660 10662 10663 10664 10666 10666 10668 10671 10673 10674 10674 10675 10676 10677 10677 10678 10681 10683 10687 10690 10693 10695 10696 10698 10700 10702 10705 10708 10709 10711 10713 10715 10717 10719 10721 10723 10726 10727 10729 10730 10732 10733 10734 10735 10736 10737 10738 10739 10740 10741 10742 10742 10742 10743 10743 10743 10743 10743 10743 10742 10742 10741 10741 10740 10739 10739 10738 10737 10736 10735 10734 10733 10731 10729 10727 10726 10724 10723 10721 10718
10649 10651 10653 10654 10654 10654 10655 10656 10658 10660 10661 10663 10664 10665 10667 10669 10671 10672 10673 10674 10675 10676 10676 10677 10680 10684 10687 10690 10692 10694 10695 10696 10698 10701 10704 10707 10709 10710 10713 10715 10717 10719 10721 10724 10726 10728 10729 10731 10731 10732 10734 10735 10736 10737 10738 10739 10740 10741 10742 10742 10743 10743 10743 10743 10743 10743 10743 10743 10742 10741 10741 10740 10739 10738 10737 10736 10735 10734 10733 10731 10730 10728 10726 10724 10723 10721 10720 10717
10645 10647 10649 10650 10650 10651 10652 10653 10654 10656 10658 10660 10662 10664 10666 10668 10670 10671 10672 10674 10675 10676 10676 10677 10680 10683 10686 10689 10691 10693 10694 10695 10698 10701 10704 10706 10708 10710 10712 10715 10716 10718 10721 10724 10726 10728 10729 10730 10731 10732 10733 10735 10736 10737 10738 10739 10740 10740 10742 10742 10743 10743 10743 10743 10743 10743 10743 10743 10742 10741 10740 10740 10739 10738 10737 10736 10735 10733 10731 10730 10728 10727 10725 10723 10721 10720 10718 10716
10641 10643 10644 10645 10646 10647 10649 10649 10651 10653 10657 10659 10661 10663 10665 10667 10668 10670 10672 10673 10675 10676 10677 10678 10680 10682 10685 10687 10690 10691 10693 10695 10698 10700 10702 10705 10707 10710 10712 10714 10716 10719 10721 10723 10725 10726 10728 10729 10731 10732 10733 10734 10736 10737 10738 10738 10739 10740 10741 10742 10743 10743 10743 10742 10742 10742 10742 10742 10741 10741 10740 10739 10739 10738 10736 10735 10734 10732 10730 10728 10727 10725 10723 10721 10720 10718 10717 10715